Tracking 18876 objects as of 14-Dec-2017
HD Live streaming from Space Station
objects crossing your sky now

COSMOS 1803

Track COSMOS 1803 now!
10-day predictions
COSMOS 1803 is classified as:


NORAD ID: 17177
Int'l Code: 1986-094A
Perigee: 1,504.2 km
Apogee: 1,510.2 km
Inclination: 82.6 °
Period: 116.0 minutes
Semi major axis: 7878 km
RCS: 10.2434 m2 (large)
Launch date: December 2, 1986
Source: Commonwealth of Independent States (former USSR) (CIS)
Launch site: PLESETSK MISSILE AND SPACE COMPLEX (PKMTR)
aabbcc
Your satellite tracking list
Your tracking list is empty




NASA's NSSDC Master Catalog

Two Line Element Set (TLE):
1 17177U 86094A   17347.55655529  .00000016  00000-0  41433-4 0  9990
2 17177  82.6059 111.2647 0003800  34.4551  75.2953 12.41554651406533
Source of the keplerian elements: AFSPC